EW5961 Weather Reports


time (UTC)temp
C
wind
direction
speed
KPH
gust
KPH
rain 1hr
cm
rain 24hr
cm
rain mn
cm
humidity
%
barometer
mb
20260902060033 27 42 12.9 25.7 0.00 0.00 0.00 83 1015.2
20260902054537 27 84 12.9 22.5 0.00 0.00 0.00 83 1015.5
20260902053032 27 52 9.7 22.5 0.00 0.00 0.00 83 1015.3
20260902051531 28 59 8.0 19.3 0.00 0.00 0.00 83 1015.5
20260902050032 28 79 6.4 19.3 0.00 0.00 0.00 83 1015.8
20260902044530 28 105 9.7 25.7 0.00 0.00 0.00 83 1015.7
20260902041528 28 62 11.3 32.2 0.00 0.00 0.00 82 1015.7
20260902040028 29 130 20.9 27.4 0.00 0.00 0.00 81 1015.6
20260902034531 29 62 17.7 29.0 0.00 0.00 0.00 81 1015.6
20260902033026 29 54 20.9 32.2 0.00 0.00 0.00 81 1015.6
20260902031525 29 75 24.1 35.4 0.00 0.00 0.00 80 1015.3
20260902030027 29 75 19.3 30.6 0.00 0.00 0.00 80 1015.1
20260902024524 29 48 22.5 32.2 0.00 0.00 0.00 79 1014.8
20260902023023 30 58 22.5 35.4 0.00 0.00 0.00 78 1014.7
20260902021533 30 44 17.7 30.6 0.00 0.00 0.00 77 1014.5
20260902020023 30 56 20.9 29.0 0.00 0.00 0.00 76 1014.3
20260902014525 30 53 17.7 27.4 0.00 0.00 0.00 75 1014.2
20260902013021 30 35 20.9 30.6 0.00 0.00 0.00 73 1014.0
20260902011524 30 39 12.9 25.7 0.00 0.00 0.00 71 1013.9
20260902010021 31 47 17.7 32.2 0.00 0.00 0.00 69 1013.7
20260902004523 31 50 16.1 32.2 0.00 0.00 0.00 67 1013.7
20260902003026 31 49 24.1 35.4 0.00 0.00 0.00 65 1013.5
20260902001518 31 34 24.1 33.8 0.00 0.00 0.00 64 1013.2
20260902000117 32 50 22.5 37.0 0.00 0.00 0.00 62 1013.3
20260901234516 32 58 25.7 33.8 0.00 0.00 0.00 60 1013.3
20260901233017 32 42 29.0 37.0 0.00 0.00 0.00 61 1013.1
20260901231519 33 325 22.5 37.0 0.00 0.00 0.00 59 1012.8
20260901230018 33 355 16.1 30.6 0.00 0.00 0.00 60 1012.6
20260901224520 33 20 20.9 32.2 0.00 0.00 0.00 61 1012.4
20260901223014 33 28 19.3 29.0 0.00 0.00 0.00 62 1012.4
20260901221513 33 11 14.5 22.5 0.00 0.00 0.00 65 1012.4
20260901220024 33 322 14.5 24.1 0.00 0.00 0.00 65 1012.3
20260901214513 34 25 12.9 20.9 0.00 0.00 0.00 64 1012.3
20260901213012 35 351 12.9 25.7 0.00 0.00 0.00 64 1012.4
20260901211609 35 342 14.5 27.4 0.00 0.00 0.00 64 1012.5
20260901210012 35 45 19.3 29.0 0.00 0.00 0.00 63 1012.5
20260901204507 35 32 20.9 33.8 0.00 0.00 0.00 62 1012.7
20260901203007 35 5 16.1 29.0 0.00 0.00 0.00 63 1012.6
20260901201504 36 13 14.5 20.9 0.00 0.00 0.00 61 1012.6
20260901200001 36 122 3.2 9.7 0.00 0.00 0.00 51 1012.8
20260901194601 36 74 6.4 19.3 0.00 0.00 0.00 52 1013.1
20260901193120 36 63 8.0 17.7 0.00 0.00 0.00 54 1013.3
20260901191555 36 115 6.4 16.1 0.00 0.00 0.00 56 1013.5
20260901190106 35 155 11.3 16.1 0.00 0.00 0.00 59 1013.6
20260901184552 35 92 8.0 16.1 0.00 0.00 0.00 58 1013.9
20260901183048 35 113 4.8 14.5 0.00 0.00 0.00 60 1014.1
20260901181547 33 67 6.4 16.1 0.00 0.00 0.00 63 1014.3
20260901180044 35 57 9.7 19.3 0.00 0.00 0.00 62 1014.4
20260901174540 33 88 6.4 14.5 0.00 0.00 0.00 62 1014.5
20260901173037 33 96 6.4 12.9 0.00 0.00 0.00 63 1014.7
20260901171544 33 57 9.7 17.7 0.00 0.00 0.00 61 1015.0
20260901170032 33 146 4.8 20.9 0.00 0.00 0.00 65 1015.2
20260901164529 32 101 3.2 12.9 0.00 0.00 0.00 69 1015.3
20260901163025 32 132 9.7 17.7 0.00 0.00 0.00 66 1015.6
20260901161523 32 37 3.2 16.1 0.00 0.00 0.00 70 1015.6
20260901160024 32 340 4.8 16.1 0.00 0.00 0.00 72 1015.8
20260901154514 31 17 4.8 14.5 0.00 0.00 0.00 73 1016.0
20260901153012 31 138 6.4 14.5 0.00 0.00 0.00 75 1016.0
20260901151508 30 134 9.7 14.5 0.00 0.00 0.00 76 1016.0
20260901144502 30 136 4.8 12.9 0.00 0.00 0.00 79 1016.0
20260901143113 29 199 0.0 8.0 0.00 0.00 0.00 81 1016.1
20260901141556 29 78 3.2 8.0 0.00 0.00 0.00 81 1016.1
20260901140054 28 113 1.6 6.4 0.00 0.00 0.00 83 1016.1
20260901134612 28 103 3.2 11.3 0.00 0.00 0.00 84 1016.0
20260901133048 27 126 3.2 11.3 0.00 0.00 0.00 86 1015.8
20260901131542 27 190 1.6 6.4 0.00 0.00 0.00 87 1015.8
20260901130039 26 125 4.8 6.4 0.00 0.00 0.00 88 1015.8
20260901124539 26 157 3.2 9.7 0.00 0.00 0.00 89 1015.5
20260901123037 26 105 0.0 4.8 0.00 0.00 0.00 89 1015.3
20260901121527 26 132 1.6 4.8 0.00 0.00 0.00 89 1015.1
20260901120022 25 109 0.0 0.0 0.00 0.00 0.00 89 1015.0
20260901114519 25 105 0.0 3.2 0.00 0.00 0.00 89 1014.9
20260901113018 25 130 1.6 6.4 0.00 0.00 0.00 88 1014.8
20260901111518 25 123 3.2 9.7 0.00 0.00 0.00 88 1014.8
20260901110017 26 118 1.6 4.8 0.00 0.00 0.00 88 1014.6
20260901104515 26 103 0.0 4.8 0.00 0.00 0.00 88 1014.7
20260901103014 26 131 0.0 4.8 0.00 0.00 0.00 88 1014.6
20260901101513 26 105 3.2 9.7 0.00 0.00 0.00 88 1014.4
20260901100011 26 125 4.8 9.7 0.00 0.00 0.00 87 1014.3
20260901094511 26 134 3.2 9.7 0.00 0.00 0.00 87 1014.3
20260901093010 26 84 3.2 9.7 0.00 0.00 0.00 87 1014.2
20260901091508 26 108 0.0 4.8 0.00 0.00 0.00 86 1014.1
20260901090007 26 69 1.6 12.9 0.00 0.00 0.00 86 1014.2
20260901084506 26 125 3.2 11.3 0.00 0.00 0.00 86 1014.0
20260901083006 26 98 3.2 11.3 0.00 0.00 0.00 86 1014.2
20260901081502 26 107 4.8 14.5 0.00 0.00 0.00 85 1014.2
20260901080004 26 111 8.0 14.5 0.00 0.00 0.00 85 1014.2
20260901074609 26 109 8.0 12.9 0.00 0.00 0.00 85 1014.4
20260901073101 26 114 3.2 12.9 0.00 0.00 0.00 85 1014.6
20260901071557 27 141 3.2 11.3 0.00 0.00 0.00 84 1014.6
20260901070055 27 103 3.2 14.5 0.00 0.00 0.00 84 1014.6
20260901064554 27 117 4.8 12.9 0.00 0.00 0.00 83 1014.8
20260901063050 27 104 4.8 16.1 0.00 0.00 0.00 83 1015.0
20260901061549 27 104 8.0 19.3 0.00 0.00 0.00 83 1015.1